Regional Weather Roundup
Issued by NWS

Home | Current Version | Previous Version | Graphics & Text | Print | Product List | Glossary On
Versions: 1 2 3 4 5 6 7 8 9 10 11 12 13 14 15 16 17 18 19 20 21 22 23 24 25 26 27 28 29 30 31 32 33 34 35 36 37 38 39 40 41 42 43 44 45 46 47 48 49 50
000
ASUS45 KCYS 291010
RWRWY

WYOMING REGIONAL WEATHER ROUNDUP
NATIONAL WEATHER SERVICE CHEYENNE WY
400 AM MDT FRI JUL 29 2016

NOTE:  "FAIR" INDICATES FEW OR NO CLOUDS BELOW 12,000 FEET
WITH NO SIGNIFICANT WEATHER AND/OR OBSTRUCTIONS TO VISIBILITY.

WYZ001-291100-
YELLOWSTONE NATIONAL PARK

CITY           SKY/WX    TMP DP  RH WIND       PRES   REMARKS
LK YELLOWSTONE   N/A     45  40  82 NW3       30.35F
W YELLOWSTONE  NOT AVBL

$$
WYZ002>013-054>058-071-098>099-291100-
NORTHERN WYOMING

CITY           SKY/WX    TMP DP  RH WIND       PRES   REMARKS
JACKSON        FAIR      55  43  62 NE5       30.24S
CODY           FAIR      61  46  59 NW3       30.17F
GREYBULL       FAIR      63  48  58 N3        30.10F
WORLAND        FAIR      59  46  62 E5        30.12S
SHERIDAN       FAIR      54  49  83 CALM      30.12S
BUFFALO        FAIR      58  46  64 W9        30.17F
GILLETTE       FAIR      52  52 100 S3        30.14F
HULETT         FAIR      52  50  93 S6        30.17F
NEWCASTLE      FAIR      55  54  94 CALM      30.17F

$$
WYZ014>020-022>026-101>103-291100-
CENTRAL WYOMING

CITY           SKY/WX    TMP DP  RH WIND       PRES   REMARKS
BIG PINEY      FAIR      50  30  46 NW6       30.31S
PINEDALE       FAIR      45  34  65 NW7       30.32S
DUBOIS         FAIR      50  41  71 CALM      30.32F
LANDER         FAIR      63  44  50 W10       30.20S
RIVERTON       FAIR      58  47  66 N6        30.21S
CASPER         FAIR      53  49  86 NW7       30.20S
DOUGLAS          N/A    N/A N/A N/A MISG      30.19F

$$
WYZ021-027>030-104>119-291100-
SOUTHERN WYOMING

CITY           SKY/WX    TMP DP  RH WIND       PRES   REMARKS
EVANSTON       FAIR      61  30  31 E7        30.29S
KEMMERER         N/A     55  39  54 N9        30.31F
FORT BRIDGER   SUNNY     55  34  44 NW5       30.32R
ROCK SPRINGS   FAIR      59  44  57 CALM      30.27S
DIXON          FAIR      55  43  64 E3        30.24S
RAWLINS        FAIR      57  51  80 NE10      30.26S
SARATOGA       FAIR      52  46  82 CALM      30.28S
LARAMIE        FAIR      54  52  93 SE8       30.29F
CHEYENNE       FAIR      58  56  93 SW9       30.25F
TORRINGTON     FAIR      57  56  96 E9        30.15F
PINE BLUFFS    FAIR      55  55 100 S3        30.22S

$$



USA.gov is the U.S. government's official web portal to all federal, state and local government web resources and services.